CMA CGM Verlaine — DASO — position and weather

sailwx.info

Track history (hours):
 
Tides and Currents Weather Stations Pressure Air Temp Water Temp Dewpoint Dewpoint Depression Visibility Wind Speed Wind Dir Waves Ship Positions

CMA CGM Verlaine

Last reported at 2014-Sep-27 06:00 UTC. Time now 2014-Oct-01 08:23 UTC.
Position N 28°42' W 070°06'.

Length 300 m; beam 40 m; draft 14.5 m.

Type: Ship. MMSI: 211378820.

Wind from 080 at 10 knots

Barometer 1016.2 mb
Air temperature 27.0 ° C
Visibility: greater than 10.8 NM
Dewpoint 22.8 ° C
Water temperature 28.0 ° C

Date/timePositionNaut miles runAvg speedWind from/ knotsBaromVisibWave heightAir tempDewpointWater temp
2014-Sep-27 06:00N 28°42' W 070°06'   080 / 101016.210.8 27.022.828.0
2014-Sep-24 22:33N 26°13' W 079°14'2519.4
2014-Sep-24 21:17N 25°51' W 079°26'  
2014-Sep-22 11:10N 29°55' W 090°07'0 0.0
2014-Sep-22 08:33N 29°55' W 090°07'8 5.7
2014-Sep-22 07:09N 29°55' W 089°57'4 6.9
2014-Sep-22 06:33N 29°52' W 089°55'8 7.8
2014-Sep-22 05:34N 29°47' W 090°01'251 8.9
2014-Sep-21 01:31N 29°22' W 094°48'1212.7
2014-Sep-21 00:33N 29°33' W 094°55'6 6.1
2014-Sep-20 23:33N 29°37' W 095°00'0 0.0
2014-Sep-20 22:33N 29°37' W 095°00'0 0.0
2014-Sep-20 21:33N 29°37' W 095°00'0 0.0
2014-Sep-20 20:32N 29°37' W 095°00'0 0.0
2014-Sep-20 19:32N 29°37' W 095°00'0 0.0
2014-Sep-20 18:31N 29°37' W 095°00'0 0.0
2014-Sep-20 17:31N 29°37' W 095°00'0 0.0
2014-Sep-20 16:33N 29°37' W 095°00'0 0.0
2014-Sep-20 15:33N 29°37' W 095°00'0 0.0
2014-Sep-20 14:33N 29°37' W 095°00'0 0.0
2014-Sep-20 13:32N 29°37' W 095°00'0 0.0
2014-Sep-20 12:31N 29°37' W 095°00'0 0.0
2014-Sep-20 11:33N 29°37' W 095°00'0 0.0
2014-Sep-20 10:33N 29°37' W 095°00'0 0.0
2014-Sep-20 09:32N 29°37' W 095°00'0 0.0
2014-Sep-20 08:32N 29°37' W 095°00'0 0.0
2014-Sep-20 07:32N 29°37' W 095°00'0 0.0
2014-Sep-20 06:31N 29°37' W 095°00'0 0.0
2014-Sep-20 05:31N 29°37' W 095°00'0 0.0
2014-Sep-20 04:33N 29°37' W 095°00'0 0.0
2014-Sep-20 03:33N 29°37' W 095°00'0 0.0
2014-Sep-20 02:32N 29°37' W 095°00'0 0.0
2014-Sep-20 01:32N 29°37' W 095°00'0 0.0
2014-Sep-20 00:33N 29°37' W 095°00'0 0.0
2014-Sep-19 23:32N 29°37' W 095°00'0 0.0
2014-Sep-19 22:32N 29°37' W 095°00'1 0.5
2014-Sep-19 21:33N 29°37' W 095°01'8 8.0
2014-Sep-19 20:31N 29°32' W 094°53'1311.5
2014-Sep-19 19:24N 29°21' W 094°46'54911.7
2014-Sep-17 20:21N 20°20' W 096°27'1519.1
2014-Sep-17 19:34N 20°06' W 096°20'1919.1
2014-Sep-17 18:33N 19°49' W 096°12'1918.6
2014-Sep-17 17:33N 19°32' W 096°04'1717.5
2014-Sep-17 16:34N 19°15' W 095°57'1010.4
2014-Sep-17 15:33N 19°12' W 096°08'0 0.3
2014-Sep-17 14:31N 19°13' W 096°08'0 0.0
2014-Sep-17 13:31N 19°13' W 096°08'0 0.0
2014-Sep-17 12:33N 19°13' W 096°08'0 0.0
2014-Sep-17 11:33N 19°13' W 096°08'0 0.0
2014-Sep-17 10:32N 19°13' W 096°08'0 0.0
2014-Sep-17 09:32N 19°13' W 096°08'0 0.0
2014-Sep-17 08:32N 19°13' W 096°08'0 0.0
2014-Sep-17 07:31N 19°13' W 096°08'0 0.0
2014-Sep-17 06:31N 19°13' W 096°08'  
Track history (hours):
 
Tides and Currents Weather Stations Pressure Air Temp Water Temp Dewpoint Dewpoint Depression Visibility Wind Speed Wind Dir Waves Ship Positions

CMA CGM Verlaine

Last reported at 2014-Sep-27 06:00 UTC. Time now 2014-Oct-01 08:23 UTC.
Position N 28°42' W 070°06'.

Length 300 m; beam 40 m; draft 14.5 m.

Type: Ship. MMSI: 211378820.

Wind from 080 at 10 knots

Barometer 1016.2 mb
Air temperature 27.0 ° C
Visibility: greater than 10.8 NM
Dewpoint 22.8 ° C
Water temperature 28.0 ° C

Date/timePositionNaut miles runAvg speedWind from/ knotsBaromVisibWave heightAir tempDewpointWater temp
2014-Sep-27 06:00N 28°42' W 070°06'   080 / 101016.210.8 27.022.828.0
2014-Sep-24 22:33N 26°13' W 079°14'2519.4
2014-Sep-24 21:17N 25°51' W 079°26'  
2014-Sep-22 11:10N 29°55' W 090°07'0 0.0
2014-Sep-22 08:33N 29°55' W 090°07'8 5.7
2014-Sep-22 07:09N 29°55' W 089°57'4 6.9
2014-Sep-22 06:33N 29°52' W 089°55'8 7.8
2014-Sep-22 05:34N 29°47' W 090°01'251 8.9
2014-Sep-21 01:31N 29°22' W 094°48'1212.7
2014-Sep-21 00:33N 29°33' W 094°55'6 6.1
2014-Sep-20 23:33N 29°37' W 095°00'0 0.0
2014-Sep-20 22:33N 29°37' W 095°00'0 0.0
2014-Sep-20 21:33N 29°37' W 095°00'0 0.0
2014-Sep-20 20:32N 29°37' W 095°00'0 0.0
2014-Sep-20 19:32N 29°37' W 095°00'0 0.0
2014-Sep-20 18:31N 29°37' W 095°00'0 0.0
2014-Sep-20 17:31N 29°37' W 095°00'0 0.0
2014-Sep-20 16:33N 29°37' W 095°00'0 0.0
2014-Sep-20 15:33N 29°37' W 095°00'0 0.0
2014-Sep-20 14:33N 29°37' W 095°00'0 0.0
2014-Sep-20 13:32N 29°37' W 095°00'0 0.0
2014-Sep-20 12:31N 29°37' W 095°00'0 0.0
2014-Sep-20 11:33N 29°37' W 095°00'0 0.0
2014-Sep-20 10:33N 29°37' W 095°00'0 0.0
2014-Sep-20 09:32N 29°37' W 095°00'0 0.0
2014-Sep-20 08:32N 29°37' W 095°00'0 0.0
2014-Sep-20 07:32N 29°37' W 095°00'0 0.0
2014-Sep-20 06:31N 29°37' W 095°00'0 0.0
2014-Sep-20 05:31N 29°37' W 095°00'0 0.0
2014-Sep-20 04:33N 29°37' W 095°00'0 0.0
2014-Sep-20 03:33N 29°37' W 095°00'0 0.0
2014-Sep-20 02:32N 29°37' W 095°00'0 0.0
2014-Sep-20 01:32N 29°37' W 095°00'0 0.0
2014-Sep-20 00:33N 29°37' W 095°00'0 0.0
2014-Sep-19 23:32N 29°37' W 095°00'0 0.0
2014-Sep-19 22:32N 29°37' W 095°00'1 0.5
2014-Sep-19 21:33N 29°37' W 095°01'8 8.0
2014-Sep-19 20:31N 29°32' W 094°53'1311.5
2014-Sep-19 19:24N 29°21' W 094°46'54911.7
2014-Sep-17 20:21N 20°20' W 096°27'1519.1
2014-Sep-17 19:34N 20°06' W 096°20'1919.1
2014-Sep-17 18:33N 19°49' W 096°12'1918.6
2014-Sep-17 17:33N 19°32' W 096°04'1717.5
2014-Sep-17 16:34N 19°15' W 095°57'1010.4
2014-Sep-17 15:33N 19°12' W 096°08'0 0.3
2014-Sep-17 14:31N 19°13' W 096°08'0 0.0
2014-Sep-17 13:31N 19°13' W 096°08'0 0.0
2014-Sep-17 12:33N 19°13' W 096°08'0 0.0
2014-Sep-17 11:33N 19°13' W 096°08'0 0.0
2014-Sep-17 10:32N 19°13' W 096°08'0 0.0
2014-Sep-17 09:32N 19°13' W 096°08'0 0.0
2014-Sep-17 08:32N 19°13' W 096°08'0 0.0
2014-Sep-17 07:31N 19°13' W 096°08'0 0.0
2014-Sep-17 06:31N 19°13' W 096°08'  

Dump ship's entire track history